Home   Weather   Zaandam   Past weeks

Flag for Netherlands Past Weather in Zaandam, Netherlands — Yesterday and Last 2 Weeks

Now
64 °F

Passing clouds.


Feels Like: 64 °F
Forecast: 52 / 61 °F
Wind: 12 mph from South

Location: Amsterdam Schiphol Airport

Current Time: Oct 1, 2016 at 5:32:49 PM

Latest Report: Oct 1, 2016 at 4:55 PM


Visibility: N/A

Pressure: 29.68 "Hg

Humidity: 64%

Dew Point: 52 °F

Location of ZaandamLocation

Past Weather in Zaandam — Graph

°F

Zaandam Temperature Yesterday

Maximum temperature yesterday: 64 °F (at 12:55 PM)
Minimum temperature yesterday: 54 °F (at 4:55 AM)
Average temperature yesterday: 58 °F

High & Low Weather Summary for the Past Weeks

 TemperatureHumidityPressure
High73 °F (Sep 24, 3:25 PM)100% (Sep 17, 8:55 AM)30.27 "Hg (Sep 17, 8:55 AM)
Low46 °F (Sep 27, 6:55 AM)43% (Sep 27, 3:25 PM)29.71 "Hg (Oct 1, 2:55 PM)
Average61 °F77%30.07 "Hg
* Reported Sep 16 4:25 PM — Oct 1 4:25 PM, Zaandam, Weather by CustomWeather, © 2016

Note: Actual official high and low records may vary slightly from our data, if they occured in-between our weather recording intervals... More about our weather records

Advertising

Zaandam Weather History for the Previous 24 Hours

Scroll right to see more
 ConditionsComfort  
Time TempWeatherWind HumidityBarometerVisibility
4:25 PM
Sat, Oct 1
64 °FPassing clouds.9 mph64%29.71 "HgN/A
3:55 PM63 °FScattered clouds.12 mph68%29.71 "HgN/A
3:25 PM63 °FScattered clouds.12 mph68%29.71 "HgN/A
2:55 PM63 °FPassing clouds.8 mph68%29.71 "HgN/A
2:25 PM61 °FPassing clouds.14 mph72%29.74 "HgN/A
1:55 PM61 °FScattered clouds.14 mph72%29.74 "HgN/A
1:25 PM63 °FScattered clouds.13 mph68%29.74 "HgN/A
12:55 PM61 °FScattered clouds.13 mph72%29.74 "HgN/A
12:25 PM61 °FPassing clouds.13 mph72%29.74 "HgN/A
11:55 AM61 °FPassing clouds.10 mph72%29.74 "HgN/A
11:25 AM59 °FPassing clouds.7 mph82%29.77 "HgN/A
10:55 AM57 °FPassing clouds.8 mph88%29.77 "HgN/A
10:25 AM57 °FPassing clouds.8 mph88%29.77 "HgN/A
9:55 AM55 °FPassing clouds.8 mph94%29.77 "HgN/A
9:25 AM54 °FPassing clouds.9 mph94%29.77 "HgN/A
8:55 AM54 °FPassing clouds.8 mph94%29.77 "HgN/A
8:25 AM52 °FPassing clouds.8 mph94%29.77 "HgN/A
7:55 AM52 °FPassing clouds.9 mph94%29.77 "HgN/A
7:25 AM50 °FPassing clouds.7 mph94%29.77 "HgN/A
6:55 AM50 °FPassing clouds.2 mph100%29.77 "HgN/A
6:25 AM52 °FPassing clouds.6 mph94%29.77 "HgN/A
5:55 AM52 °FPassing clouds.8 mph94%29.80 "HgN/A
5:25 AM54 °FPassing clouds.6 mph88%29.80 "HgN/A
4:55 AM54 °FPassing clouds.3 mph88%29.80 "HgN/A
4:25 AM54 °FPassing clouds.3 mph88%29.80 "HgN/A
3:55 AM52 °FPassing clouds.5 mph94%29.80 "HgN/A
3:25 AM52 °FPassing clouds.6 mph94%29.83 "HgN/A
2:55 AM52 °FPassing clouds.5 mph94%29.83 "HgN/A
2:25 AM52 °FPassing clouds.7 mph94%29.83 "HgN/A
1:55 AM52 °FPassing clouds.7 mph94%29.83 "HgN/A
1:25 AM52 °FPassing clouds.8 mph94%29.86 "HgN/A
12:55 AM52 °FPassing clouds.7 mph88%29.86 "HgN/A
12:25 AM54 °FPassing clouds.7 mph88%29.86 "HgN/A
11:55 PM
Fri, Sep 30
54 °FPassing clouds.7 mph88%29.89 "HgN/A
11:25 PM57 °FPassing clouds.8 mph77%29.89 "HgN/A
10:55 PM55 °FScattered showers. Passing clouds.8 mph82%29.89 "HgN/A
10:25 PM55 °FPassing clouds.8 mph82%29.89 "HgN/A
9:55 PM57 °FScattered showers. Passing clouds.8 mph77%29.89 "HgN/A
9:25 PM57 °FPassing clouds.8 mph77%29.89 "HgN/A
8:55 PM57 °FClear.7 mph77%29.89 "Hg10 mi
8:25 PM55 °FPassing clouds.8 mph82%29.89 "HgN/A
7:55 PM55 °FPassing clouds.7 mph77%29.89 "HgN/A
7:25 PM57 °FPassing clouds.9 mph72%29.89 "HgN/A
6:55 PM59 °FPassing clouds.10 mph68%29.89 "HgN/A
6:25 PM61 °FPassing clouds.13 mph59%29.89 "HgN/A
5:55 PM63 °FPassing clouds.15 mph56%29.89 "HgN/A
5:25 PM63 °FPassing clouds.18 mph49%29.89 "HgN/A
Weather by CustomWeather, © 2016

See weather overviewHow to use our weather pages